sat.trackr.live / text

‹ back to catalog

STARLINK-31888

NORAD 59788 · 2024-093G

PAYLOAD ACTIVE UNKNOWN

§ Identity

Operator
Country
US
Launch date
2024-05-18
Launch site
AFETR
Launch vehicle
Mass (kg)
RCS (m²)

Purposes: comms

External: N2YO · Heavens-Above · Gunter

§ Orbital elements

Epoch: 2026-05-25T00:43:56.960832Z

Period
94.27 min
Inclination
43.0029°
Eccentricity
0.0001287
Mean motion
15.27584330 rev/d
Perigee alt
482.2 km
Apogee alt
483.9 km
Semi-major
6,861.2 km
B*
-3.0792e-5
RAAN
137.5211°
Arg perigee
278.9746°
Mean anomaly
81.0960°
Rev number
11,437

§ Raw data

STARLINK-318881 59788U 24093G   26145.03052038 -.00001109  00000+0 -30792-4 0  99912 59788  43.0029 137.5211 0001287 278.9746  81.0960 15.27584330114376

JSON: /api/v1/satellites/59788 · /tle

For live sub-satellite position, see the globe view (requires WebGL).

§ Visibility from observer

Set your observer location to see the next 7 days of passes ≥ 10°. The values pass through the URL so the page stays shareable.

No JS? Fill the form by hand. The geolocation button needs JavaScript.